• în Republica Moldova
  • Lista ţărilor
  • Pe 7 zile
  • Temperatura apei
  • Hartă satelitară
  • Meteo pe hartă
  • Widget-uri
  • user-avatar
    Intrare

    Meteo pe oră la Boec

    Astăzi, 24 Aprilie, Marţi

    Timp Temperatura Precipitaţii Vânt Presiune Umiditate
    00:00 +4°C° 0 mm 3 m/s 748 mmHg 57%
    01:00 +4°C° 0 mm 3 m/s 748 mmHg 58%
    02:00 +4°C° 0 mm 2 m/s 747 mmHg 61%
    03:00 +3°C° 0 mm 3 m/s 747 mmHg 61%
    04:00 +4°C° 0 mm 3 m/s 747 mmHg 61%
    05:00 +4°C° 0 mm 3 m/s 747 mmHg 62%
    06:00 +5°C° 0 mm 3 m/s 746 mmHg 62%
    07:00 +7°C° 0 mm 3 m/s 746 mmHg 63%
    08:00 +8°C° 0 mm 3 m/s 745 mmHg 63%
    09:00 +9°C° 0 mm 3 m/s 745 mmHg 62%
    10:00 +10°C° 0 mm 3 m/s 745 mmHg 62%
    11:00 +11°C° 0 mm 3 m/s 745 mmHg 61%
    12:00 +12°C° 0 mm 3 m/s 745 mmHg 60%
    13:00 +13°C° 0 mm 3 m/s 745 mmHg 59%
    14:00 +16°C° 0 mm 2 m/s 745 mmHg 58%
    15:00 +16°C° 0 mm 2 m/s 744 mmHg 59%
    16:00 +16°C° 0 mm 2 m/s 744 mmHg 61%
    17:00 +16°C° 0 mm 2 m/s 744 mmHg 63%
    18:00 +15°C° 0 mm 2 m/s 744 mmHg 68%
    19:00 +13°C° 0 mm 2 m/s 744 mmHg 74%
    20:00 +12°C° 0 mm 2 m/s 744 mmHg 79%
    21:00 +10°C° 0 mm 2 m/s 744 mmHg 81%
    22:00 +10°C° 0 mm 2 m/s 744 mmHg 83%
    23:00 +9°C° 0 mm 3 m/s 745 mmHg 84%

    Mâine, 25 Aprilie, Miercuri

    Timp Temperatura Precipitaţii Vânt Presiune Umiditate
    00:00 +8°C° 0 mm 3 m/s 745 mmHg 84%
    01:00 +8°C° 0 mm 2 m/s 745 mmHg 84%
    02:00 +8°C° 0 mm 2 m/s 745 mmHg 84%
    03:00 +8°C° 0 mm 2 m/s 745 mmHg 84%
    04:00 +8°C° 0 mm 2 m/s 744 mmHg 83%
    05:00 +8°C° 0 mm 2 m/s 744 mmHg 83%
    06:00 +9°C° 0,1 mm 3 m/s 744 mmHg 81%
    07:00 +10°C° 0,1 mm 4 m/s 744 mmHg 79%
    08:00 +11°C° 0,1 mm 4 m/s 744 mmHg 77%
    09:00 +12°C° 0 mm 5 m/s 744 mmHg 74%
    10:00 +14°C° 0 mm 5 m/s 744 mmHg 70%
    11:00 +15°C° 0 mm 5 m/s 744 mmHg 67%
    12:00 +15°C° 0 mm 5 m/s 744 mmHg 64%
    13:00 +16°C° 0 mm 5 m/s 744 mmHg 61%
    14:00 +16°C° 0 mm 5 m/s 743 mmHg 58%
    15:00 +16°C° 0,2 mm 5 m/s 743 mmHg 62%
    16:00 +15°C° 0,2 mm 4 m/s 743 mmHg 66%
    17:00 +14°C° 0,2 mm 3 m/s 743 mmHg 70%
    18:00 +13°C° 0 mm 3 m/s 742 mmHg 73%
    19:00 +13°C° 0 mm 3 m/s 742 mmHg 77%
    20:00 +13°C° 0 mm 2 m/s 742 mmHg 80%
    21:00 +12°C° 0,3 mm 4 m/s 741 mmHg 81%
    22:00 +12°C° 0,3 mm 5 m/s 741 mmHg 81%
    23:00 +13°C° 0,3 mm 6 m/s 740 mmHg 82%

    Poimâine, 26 Aprilie, Joi

    Timp Temperatura Precipitaţii Vânt Presiune Umiditate
    00:00 +13°C° 0,1 mm 5 m/s 740 mmHg 84%
    01:00 +13°C° 0,1 mm 5 m/s 740 mmHg 85%
    02:00 +13°C° 0,1 mm 5 m/s 740 mmHg 87%
    03:00 +13°C° 0 mm 5 m/s 740 mmHg 88%
    04:00 +12°C° 0 mm 5 m/s 740 mmHg 89%
    05:00 +12°C° 0 mm 5 m/s 740 mmHg 90%
    06:00 +13°C° 0 mm 6 m/s 741 mmHg 83%
    07:00 +12°C° 0 mm 7 m/s 741 mmHg 77%
    08:00 +13°C° 0 mm 8 m/s 742 mmHg 70%
    09:00 +13°C° 0 mm 8 m/s 742 mmHg 65%
    10:00 +14°C° 0 mm 7 m/s 743 mmHg 61%
    11:00 +14°C° 0 mm 7 m/s 744 mmHg 56%
    12:00 +15°C° 0 mm 7 m/s 744 mmHg 52%
    13:00 +15°C° 0 mm 6 m/s 744 mmHg 48%
    14:00 +16°C° 0 mm 6 m/s 744 mmHg 43%
    15:00 +16°C° 0 mm 5 m/s 744 mmHg 44%
    16:00 +16°C° 0 mm 5 m/s 744 mmHg 45%
    17:00 +17°C° 0 mm 4 m/s 744 mmHg 46%
    18:00 +14°C° 0 mm 4 m/s 745 mmHg 49%
    19:00 +13°C° 0 mm 3 m/s 745 mmHg 53%
    20:00 +13°C° 0 mm 2 m/s 746 mmHg 57%
    21:00 +12°C° 0 mm 2 m/s 746 mmHg 59%
    22:00 +12°C° 0 mm 2 m/s 746 mmHg 62%
    23:00 +10°C° 0 mm 2 m/s 746 mmHg 64%

    27 Aprilie, Vineri

    Timp Temperatura Precipitaţii Vânt Presiune Umiditate
    00:00 +10°C° 0 mm 2 m/s 746 mmHg 66%
    01:00 +10°C° 0 mm 1 m/s 747 mmHg 68%
    02:00 +10°C° 0 mm 1 m/s 747 mmHg 70%
    03:00 +9°C° 0 mm 1 m/s 747 mmHg 73%
    04:00 +9°C° 0 mm 1 m/s 747 mmHg 75%
    05:00 +8°C° 0 mm 1 m/s 747 mmHg 77%
    06:00 +10°C° 0 mm 1 m/s 748 mmHg 71%
    07:00 +11°C° 0 mm 1 m/s 748 mmHg 66%
    08:00 +13°C° 0 mm 1 m/s 748 mmHg 60%
    09:00 +13°C° 0,4 mm 1 m/s 748 mmHg 59%
    10:00 +14°C° 0,4 mm 2 m/s 748 mmHg 58%
    11:00 +14°C° 0,4 mm 2 m/s 748 mmHg 57%
    12:00 +14°C° 0,4 mm 3 m/s 748 mmHg 56%
    13:00 +14°C° 0,4 mm 3 m/s 748 mmHg 54%
    14:00 +16°C° 0,4 mm 3 m/s 748 mmHg 52%
    15:00 +16°C° 0,1 mm 3 m/s 748 mmHg 52%
    16:00 +14°C° 0,1 mm 4 m/s 749 mmHg 52%
    17:00 +14°C° 0,1 mm 4 m/s 749 mmHg 52%
    18:00 +13°C° 0 mm 3 m/s 749 mmHg 58%
    19:00 +11°C° 0 mm 3 m/s 750 mmHg 64%
    20:00 +10°C° 0 mm 2 m/s 750 mmHg 70%
    21:00 +9°C° 0 mm 2 m/s 751 mmHg 72%
    22:00 +8°C° 0 mm 2 m/s 751 mmHg 74%
    23:00 +8°C° 0 mm 2 m/s 751 mmHg 75%

    28 Aprilie, Sâmbătă

    Timp Temperatura Precipitaţii Vânt Presiune Umiditate
    00:00 +7°C° 0 mm 2 m/s 751 mmHg 76%
    01:00 +7°C° 0 mm 2 m/s 752 mmHg 78%
    02:00 +6°C° 0 mm 2 m/s 752 mmHg 79%
    03:00 +7°C° 0 mm 1 m/s 752 mmHg 80%
    04:00 +7°C° 0 mm 1 m/s 752 mmHg 80%
    05:00 +7°C° 0 mm 1 m/s 752 mmHg 81%
    06:00 +8°C° 0 mm 2 m/s 753 mmHg 74%
    07:00 +10°C° 0 mm 2 m/s 753 mmHg 67%
    08:00 +13°C° 0 mm 2 m/s 753 mmHg 60%
    09:00 +14°C° 0 mm 2 m/s 753 mmHg 54%
    10:00 +16°C° 0 mm 3 m/s 753 mmHg 48%
    11:00 +17°C° 0 mm 3 m/s 753 mmHg 42%
    12:00 +18°C° 0 mm 3 m/s 753 mmHg 41%
    13:00 +19°C° 0 mm 3 m/s 752 mmHg 39%
    14:00 +19°C° 0 mm 3 m/s 752 mmHg 38%
    15:00 +19°C° 0 mm 3 m/s 752 mmHg 40%
    16:00 +19°C° 0 mm 3 m/s 752 mmHg 41%
    17:00 +19°C° 0 mm 2 m/s 751 mmHg 43%
    18:00 +17°C° 0 mm 3 m/s 751 mmHg 48%
    19:00 +16°C° 0 mm 3 m/s 751 mmHg 54%
    20:00 +13°C° 0 mm 3 m/s 751 mmHg 59%
    21:00 +13°C° 0 mm 3 m/s 751 mmHg 61%
    22:00 +13°C° 0 mm 4 m/s 751 mmHg 63%
    23:00 +12°C° 0 mm 4 m/s 751 mmHg 65%

    29 Aprilie, Duminică

    Timp Temperatura Precipitaţii Vânt Presiune Umiditate
    00:00 +12°C° 0,1 mm 4 m/s 751 mmHg 66%
    01:00 +12°C° 0,1 mm 4 m/s 750 mmHg 68%
    02:00 +12°C° 0,1 mm 4 m/s 750 mmHg 70%
    03:00 +12°C° 0,1 mm 4 m/s 750 mmHg 74%
    04:00 +12°C° 0,1 mm 4 m/s 750 mmHg 78%
    05:00 +11°C° 0,1 mm 4 m/s 750 mmHg 81%
    06:00 +13°C° 0,1 mm 4 m/s 750 mmHg 80%
    07:00 +14°C° 0,1 mm 4 m/s 750 mmHg 78%
    08:00 +16°C° 0,1 mm 5 m/s 750 mmHg 77%
    09:00 +17°C° 0,2 mm 5 m/s 750 mmHg 72%
    10:00 +20°C° 0,2 mm 5 m/s 750 mmHg 68%
    11:00 +22°C° 0,2 mm 5 m/s 750 mmHg 63%
    12:00 +22°C° 0,5 mm 5 m/s 749 mmHg 61%
    13:00 +23°C° 0,5 mm 5 m/s 749 mmHg 58%
    14:00 +25°C° 0,5 mm 5 m/s 749 mmHg 56%
    15:00 +23°C° 0,7 mm 4 m/s 749 mmHg 58%
    16:00 +24°C° 0,7 mm 3 m/s 749 mmHg 61%
    17:00 +23°C° 0,7 mm 2 m/s 749 mmHg 64%
    18:00 +21°C° 0,2 mm 2 m/s 749 mmHg 69%
    19:00 +20°C° 0,2 mm 1 m/s 749 mmHg 74%
    20:00 +18°C° 0,2 mm 1 m/s 749 mmHg 79%
    21:00 +18°C° 0,2 mm 1 m/s 749 mmHg 81%
    22:00 +16°C° 0,2 mm 1 m/s 749 mmHg 83%
    23:00 +15°C° 0,2 mm 1 m/s 749 mmHg 84%
    Arată mai mult